JST683 YPAD-YMHB

Flight info

Callsign JST683
Flight time N/A
Altitude 35000
Route N0451F350 DCT BENDO Y218 GRACY T234 URBEN Y557 MORGO DCT
Aircraft A320/M-SDE3FGHIRWYZ/LB1

Departure

Time 2025-09-10 09:05
Airport Adelaide International Airport (YPAD)

Arrival

Time N/A
Airport Hobart International Airport (YMHB)
Time Latitude Longitude Altitude Speed Heading
2025-09-10 08:30 -34.94082 138.53625 26 ft 0 kts 320°
2025-09-10 08:55 -34.94103 138.53643 30 ft 3 kts 333°
2025-09-10 08:55 -34.94121 138.53654 26 ft 3 kts 323°
2025-09-10 08:56 -34.94135 138.53691 26 ft 2 kts 271°
2025-09-10 09:00 -34.94138 138.53686 26 ft 3 kts 239°
2025-09-10 09:01 -34.94231 138.53742 28 ft 12 kts 50°
2025-09-10 09:01 -34.94109 138.53920 28 ft 15 kts 50°
2025-09-10 09:02 -34.93974 138.54117 26 ft 12 kts 50°
2025-09-10 09:02 -34.93982 138.54229 26 ft 0 kts 140°
2025-09-10 09:03 -34.93985 138.54232 26 ft 1 kts 140°
2025-09-10 09:03 -34.94047 138.54294 26 ft 9 kts 140°
2025-09-10 09:04 -34.94139 138.54223 26 ft 29 kts 227°
2025-09-10 09:04 -34.94419 138.53813 26 ft 93 kts 230°
2025-09-10 09:05 -34.96328 138.51027 943 ft 155 kts 230°
2025-09-10 09:05 -34.97853 138.48806 1496 ft 193 kts 230°
2025-09-10 09:06 -34.99794 138.45980 2167 ft 237 kts 229°
2025-09-10 09:06 -35.01949 138.42849 3885 ft 242 kts 226°
2025-09-10 09:07 -35.04972 138.41673 5507 ft 250 kts 162°
2025-09-10 09:07 -35.06468 138.42804 6329 ft 260 kts 143°
2025-09-10 09:08 -35.10927 138.47777 7671 ft 307 kts 141°
2025-09-10 09:08 -35.12505 138.49555 8355 ft 311 kts 141°
2025-09-10 09:09 -35.17307 138.54909 10380 ft 322 kts 141°
2025-09-10 09:09 -35.20652 138.58634 11698 ft 328 kts 141°
2025-09-10 09:10 -35.24058 138.62435 12991 ft 334 kts 141°
2025-09-10 09:10 -35.27518 138.66302 14195 ft 340 kts 140°
2025-09-10 09:10 -35.29276 138.68269 14763 ft 343 kts 140°
2025-09-10 09:11 -35.32832 138.72244 15878 ft 349 kts 140°
2025-09-10 09:11 -35.36452 138.76298 16953 ft 356 kts 140°
2025-09-10 09:12 -35.40123 138.80433 18014 ft 361 kts 140°
2025-09-10 09:13 -35.45713 138.86715 19617 ft 369 kts 140°
2025-09-10 09:13 -35.49532 138.91007 20667 ft 374 kts 139°
2025-09-10 09:14 -35.55343 138.97569 22117 ft 382 kts 139°
2025-09-10 09:14 -35.57306 138.99789 22571 ft 385 kts 139°
2025-09-10 09:15 -35.61269 139.04265 23427 ft 390 kts 139°
2025-09-10 09:15 -35.65280 139.08800 24251 ft 394 kts 139°
2025-09-10 09:17 -35.79685 139.25167 26690 ft 411 kts 139°
2025-09-10 09:19 -35.94683 139.42294 28788 ft 428 kts 139°
2025-09-10 09:21 -36.14385 139.64915 31856 ft 432 kts 139°
2025-09-10 09:23 -36.29904 139.82879 33971 ft 440 kts 139°
2025-09-10 09:25 -36.50319 140.06625 35078 ft 456 kts 139°
2025-09-10 09:27 -36.66445 140.25533 35081 ft 455 kts 139°
2025-09-10 09:29 -36.87089 140.49896 35081 ft 453 kts 138°
2025-09-10 09:31 -37.03026 140.68868 35072 ft 451 kts 138°
2025-09-10 09:33 -37.21156 140.90530 35057 ft 449 kts 138°
2025-09-10 09:35 -37.39202 141.12277 35042 ft 449 kts 137°
2025-09-10 09:37 -37.57215 141.34104 35028 ft 449 kts 137°
2025-09-10 09:39 -37.75180 141.56019 35020 ft 449 kts 137°
2025-09-10 09:41 -37.93122 141.78047 34984 ft 451 kts 136°
2025-09-10 09:42 -38.08937 141.97620 34998 ft 455 kts 136°
2025-09-10 09:45 -38.28329 142.21752 35005 ft 456 kts 136°
2025-09-10 09:46 -38.44200 142.41655 35005 ft 456 kts 136°
2025-09-10 09:49 -38.64541 142.67366 35023 ft 458 kts 136°
2025-09-10 09:50 -38.80345 142.87464 35020 ft 458 kts 135°
2025-09-10 09:53 -39.01669 143.11994 35030 ft 457 kts 141°
2025-09-10 09:55 -39.21434 143.32676 35023 ft 458 kts 141°
2025-09-10 09:57 -39.43574 143.56023 35024 ft 456 kts 141°
2025-09-10 09:59 -39.60719 143.74229 35027 ft 454 kts 141°
2025-09-10 10:01 -39.80221 143.95104 35023 ft 452 kts 141°
2025-09-10 10:03 -39.99593 144.15991 35011 ft 452 kts 141°
2025-09-10 10:05 -40.18913 144.36992 35005 ft 452 kts 140°
2025-09-10 10:07 -40.38254 144.58165 34991 ft 454 kts 141°
2025-09-10 10:09 -40.57622 144.79546 34984 ft 456 kts 141°
2025-09-10 10:10 -40.74647 144.98458 34973 ft 459 kts 141°
2025-09-10 10:13 -40.98949 145.25966 34972 ft 460 kts 141°
2025-09-10 10:14 -41.13484 145.42613 34973 ft 460 kts 141°
2025-09-10 10:17 -41.37628 145.70542 34973 ft 461 kts 141°
2025-09-10 10:19 -41.54541 145.90258 34973 ft 461 kts 141°
2025-09-10 10:21 -41.73005 146.11953 34962 ft 461 kts 141°
2025-09-10 10:23 -41.90598 146.36997 31368 ft 479 kts 118°
2025-09-10 10:24 -42.01214 146.65089 24672 ft 470 kts 119°
2025-09-10 10:25 -42.02676 146.68991 23939 ft 465 kts 119°
2025-09-10 10:25 -42.05563 146.76681 22513 ft 456 kts 120°
2025-09-10 10:26 -42.08393 146.84221 21110 ft 447 kts 120°
2025-09-10 10:26 -42.11161 146.91621 19743 ft 438 kts 120°
2025-09-10 10:27 -42.13861 146.98880 18478 ft 428 kts 120°
2025-09-10 10:27 -42.16574 147.05934 17305 ft 418 kts 126°
2025-09-10 10:28 -42.20327 147.11691 16205 ft 404 kts 141°
2025-09-10 10:28 -42.26499 147.19298 14500 ft 394 kts 141°
2025-09-10 10:29 -42.28504 147.21788 13920 ft 390 kts 140°
2025-09-10 10:29 -42.32595 147.26474 12682 ft 381 kts 150°
2025-09-10 10:30 -42.37174 147.29977 11696 ft 365 kts 154°
2025-09-10 10:30 -42.41424 147.33136 11445 ft 334 kts 154°
2025-09-10 10:31 -42.45326 147.36051 11187 ft 308 kts 154°
2025-09-10 10:31 -42.48928 147.38752 10823 ft 292 kts 155°
2025-09-10 10:32 -42.52453 147.41391 10174 ft 287 kts 155°
2025-09-10 10:32 -42.55921 147.43986 9546 ft 282 kts 154°
2025-09-10 10:33 -42.59313 147.46630 8911 ft 282 kts 147°
2025-09-10 10:33 -42.62319 147.50024 8273 ft 280 kts 143°
2025-09-10 10:34 -42.65299 147.53418 7598 ft 279 kts 144°